Location: Gisborne
(38.6530°S, 178.0040°E)
Time: 08:40:29
(UTC+13:00)

USA 186 - Pass Details

Date: 24 January 2019
Orbit: 262 x 443 km, 96.9° (Epoch: 04 October)

Event Time Altitude Azimuth Distance (km) Brightness Sun altitude
Rises 21:24:18 0° 166° (SSE) 2,248 5.7 -10.1°
Reaches altitude 10° 21:26:20 10° 163° (SSE) 1,360 4.6 -10.4°
Maximum altitude 21:29:13 66° 80° (E) 385 1.3 -10.8°
Drops below altitude 10° 21:31:52 10° 356° (N) 1,254 3.8 -11.3°
Enters shadow 21:32:28 - 355° (N) 1,519 4.3 -11.4°
